Regional Weather Roundup
Issued by NWS

Home | Current Version | Previous Version | Graphics & Text | Print | Product List | Glossary On
Versions: 1 2 3 4 5 6 7 8 9 10 11 12 13 14 15 16 17 18 19 20 21 22 23 24 25 26 27 28 29 30 31 32 33 34 35 36 37 38 39 40 41 42 43 44 45 46 47 48 49 50
000
ASUS43 KLOT 030312
RWRIL

ILLINOIS REGIONAL WEATHER ROUNDUP
NATIONAL WEATHER SERVICE CHICAGO/ROMEOVILLE IL
1000 PM CDT WED SEP 02 2015

NOTE: "FAIR" INDICATES FEW OR NO CLOUDS BELOW 12,000 FEET WITH NO
SIGNIFICANT WEATHER AND/OR OBSTRUCTIONS TO VISIBILITY.

* THESE STATIONS ARE NOT UNDER NWS QUALITY CONTROL. THEY ALSO MAY NOT
  REPORT WEATHER SUCH AS PRECIPITATION OR FOG.

ILZ001-002-007-009-015-016-024-030400-
NORTHWEST ILLINOIS

CITY           SKY/WX    TMP DP  RH WIND       PRES   REMARKS
MOLINE         CLEAR     77  69  76 S6        29.95R
STERLING*      CLOUDY    79  72  78 CALM      29.94S HX  82
SAVANNA*       MOCLDY    76  69  79 SE3       29.95R
$$

ILZ003-004-008-010-011-017-018-030400-
NORTH CENTRAL ILLINOIS

CITY           SKY/WX    TMP DP  RH WIND       PRES   REMARKS
ROCKFORD       PTCLDY    75  70  84 S3        29.97R
FREEPORT*      PTCLDY    75  69  81 S8        29.97S
ROCHELLE*      CLEAR     72  70  93 S5        29.98R
DE KALB*       MOCLDY    74  71  88 CALM      29.99R
PERU*          CLOUDY    77  68  73 SW5       29.98S
$$

ILZ005-006-012>014-019>023-030400-
NORTHEAST ILLINOIS

CITY           SKY/WX    TMP DP  RH WIND       PRES   REMARKS
CHICAGO-OHARE  PTCLDY    79  68  69 SW3       29.97R HX  81
CHICAGO-MIDWAY PTCLDY    83  68  60 S5        29.97R HX  86
AURORA         MOCLDY    77  69  76 S5        29.98R
LANSING*       MOCLDY    74  68  81 CALM      29.99R
JOLIET*        MOCLDY    74  71  91 CALM      29.98R
WAUKEGAN       PTCLDY    77  69  76 S5        29.96R
DUPAGE AIRPORT PTCLDY    74  67  78 S3        29.97R
KANKAKEE*      PTCLDY    75  70  85 S5        30.00R
WHEELING       CLEAR     81  66  60 S6        29.98R HX  83
MORRIS*        CLEAR     75  70  85 S3        29.97R
ROMEOVILLE*    CLEAR     74  68  81 S5        29.98S
NORTHERLY ISL    N/A     82  66  58 S3          N/A  HX  84
$$

LMZ740>746-030400-
SOUTHERN LAKE MICHIGAN

STATION/POSITION SKY/WX   TEMP    WIND        PRES    VSBY  WAVE
                          AIR SEA DIR/SP/G                  HT/PER
                          (F)     (DEG/KT/KT) (MB)    (MI)  (FT/S)
SOUTHERN BUOY              74 71  170/  8/ 10 1014.2R         0
WILMETTE HARBOR            74 60  320/  6/  6   N/A           0
HARRISON CRIB              82     180/  8/  9   N/A
BURNHAM HARBOR             82     180/  3/  6   N/A
CALUMET HARBOR             82     190/  3/  4   N/A
BURNS HARBOR               83     190/  6/  8 1015.6R
MICHIGAN CITY              81     170/  7/  8   N/A
MICHIGAN CITY 6N           77 74  190/  4/  6   N/A           1
ST. JOSEPH                 77 75  210/  6/  8   N/A           1
$$

ILZ025>027-034>036-040-047-049-050-058-095>099-030400-
WEST-CENTRAL ILLINOIS

CITY           SKY/WX    TMP DP  RH WIND       PRES   REMARKS
QUINCY         MOCLDY    78  69  73 S7        29.98S HX  80
GALESBURG*     CLEAR     74  68  80 S5        29.97S
MACOMB*        CLEAR     75  69  80 S6        30.00S
JACKSONVILLE*  PTCLDY    76  69  80 S5        29.99F
PITTSFIELD*    CLEAR     75  70  84 S3        30.01S
$$

ILZ028>032-037-038-041>044-048-051>054-059>061-030400-
CENTRAL ILLINOIS

CITY           SKY/WX    TMP DP  RH WIND       PRES   REMARKS
PONTIAC        PTCLDY    72  71  96 CALM      30.00R
BLOOMINGTON    CLEAR     74  69  84 SW6       30.02S
DECATUR        CLEAR     78  68  71 SW6       30.01S HX  80
PEORIA         PTCLDY    78  66  66 SW5       29.98S HX  80
LACON*         CLEAR     75  69  80 CALM      29.97S
LINCOLN*       CLEAR     74  66  76 CALM      29.99S
SPRINGFIELD    PTCLDY    74  67  78 CALM      30.00S
TAYLORVILLE    CLEAR     73  70  88 S3        30.01S
$$

ILZ033-039-045-046-055>057-062-063-030400-
EAST-CENTRAL ILLINOIS

CITY           SKY/WX    TMP DP  RH WIND       PRES   REMARKS
CHAMPAIGN      PTCLDY    74  68  81 S6        30.02S
RANTOUL*       CLEAR     77  70  79 SW6       30.01S
MATTOON        HAZE      77  68  73 SW3       30.02S VSB 1/2
PARIS*         PTCLDY    71  69  94 S5        30.03S
$$

ILZ079-100>102-030400-
SOUTHWEST ILLINOIS

CITY           SKY/WX    TMP DP  RH WIND       PRES   REMARKS
ALTON          PTCLDY    75  70  83 CALM      30.01R
BELLEVILLE     PTCLDY    77  73  87 CALM      30.00R
CAHOKIA*       CLEAR     78  71  79 CALM      30.00R HX  80
SPARTA*        PTCLDY    76  71  85 CALM      30.03S
$$

ILZ064>066-069>071-074>076-080>082-084>086-088>090-092>094-030400-
SOUTH-CENTRAL ILLINOIS

CITY           SKY/WX    TMP DP  RH WIND       PRES   REMARKS
CARBONDALE     PTCLDY    73  71  93 CALM      30.02R
CAIRO*         CLEAR     70  70 100 CALM      30.02R
EFFINGHAM*     MOCLDY    73  68  87 CALM      30.04S
MARION         CLEAR     75  72  88 CALM      30.03S
MT. VERNON     PTCLDY    72  64  78 CALM      30.03S
CENTRALIA*     MOCLDY    73  72  95 CALM      30.02S
SALEM*         MOCLDY    73  70  88 CALM      30.02S
METROPOLIS*    CLEAR     72  71  98 CALM      30.03S
$$

ILZ067-068-072-073-078-083-087-091-030400-
SOUTHEAST ILLINOIS

CITY           SKY/WX    TMP DP  RH WIND       PRES   REMARKS
LAWRENCEVILLE  CLEAR     76  69  79 CALM      30.03R
FLORA*         CLEAR     71  67  87 CALM      30.03S
FAIRFIELD*     CLEAR     73  70  90 CALM      30.02S
HARRISBURG*    CLEAR     72  70  92 CALM      30.03S
ROBINSON*      CLEAR     70  69  96 CALM      30.03F
CARMI*         CLEAR     71  69  92 CALM      30.02S
$$

ABBREVIATIONS USED IN REMARKS
   TC - TEMPERATURE IN CELSIUS
  WCI - WIND CHILL INDEX
   HX - HEAT INDEX
  VSB - VISIBILITY
$$




USA.gov is the U.S. government's official web portal to all federal, state and local government web resources and services.